Meteo pe oră la Bolshoe Gorodische

Astăzi, 9 Mai, Duminică

Timp Temperatura Precipitaţii Vânt Presiune Umiditate
00:00 +2°C° 0 mm 2 m/s 747 mmHg 92%
01:00 +1°C° 0 mm 2 m/s 748 mmHg 92%
02:00 +1°C° 0 mm 2 m/s 748 mmHg 94%
03:00 +1°C° 0 mm 2 m/s 748 mmHg 94%
04:00 +1°C° 0 mm 2 m/s 749 mmHg 94%
05:00 +1°C° 0 mm 2 m/s 749 mmHg 95%
06:00 +3°C° 0 mm 2 m/s 750 mmHg 88%
07:00 +6°C° 0 mm 1 m/s 750 mmHg 80%
08:00 +8°C° 0 mm 1 m/s 751 mmHg 73%
09:00 +9°C° 0 mm 1 m/s 751 mmHg 66%
10:00 +9°C° 0 mm 2 m/s 751 mmHg 60%
11:00 +12°C° 0 mm 2 m/s 751 mmHg 53%
12:00 +12°C° 0 mm 2 m/s 751 mmHg 50%
13:00 +13°C° 0 mm 2 m/s 751 mmHg 46%
14:00 +14°C° 0 mm 2 m/s 751 mmHg 43%
15:00 +14°C° 0 mm 2 m/s 750 mmHg 44%
16:00 +13°C° 0 mm 3 m/s 750 mmHg 45%
17:00 +13°C° 0 mm 3 m/s 750 mmHg 46%
18:00 +11°C° 0 mm 3 m/s 750 mmHg 53%
19:00 +10°C° 0 mm 2 m/s 751 mmHg 60%
20:00 +8°C° 0 mm 2 m/s 751 mmHg 67%
21:00 +8°C° 0 mm 3 m/s 751 mmHg 66%
22:00 +8°C° 0 mm 3 m/s 751 mmHg 65%
23:00 +8°C° 0 mm 3 m/s 751 mmHg 65%

Mâine, 10 Mai, Luni

Timp Temperatura Precipitaţii Vânt Presiune Umiditate
00:00 +7°C° 0 mm 3 m/s 751 mmHg 67%
01:00 +5°C° 0 mm 3 m/s 751 mmHg 70%
02:00 +5°C° 0 mm 3 m/s 752 mmHg 73%
03:00 +4°C° 0 mm 3 m/s 752 mmHg 74%
04:00 +4°C° 0 mm 3 m/s 752 mmHg 75%
05:00 +4°C° 0 mm 3 m/s 752 mmHg 76%
06:00 +6°C° 0 mm 4 m/s 752 mmHg 72%
07:00 +8°C° 0 mm 4 m/s 752 mmHg 67%
08:00 +10°C° 0 mm 5 m/s 752 mmHg 63%
09:00 +13°C° 0 mm 5 m/s 752 mmHg 59%
10:00 +14°C° 0 mm 5 m/s 752 mmHg 56%
11:00 +16°C° 0 mm 5 m/s 752 mmHg 52%
12:00 +17°C° 0 mm 5 m/s 752 mmHg 51%
13:00 +17°C° 0 mm 5 m/s 752 mmHg 50%
14:00 +19°C° 0 mm 5 m/s 752 mmHg 49%
15:00 +19°C° 0 mm 5 m/s 751 mmHg 51%
16:00 +19°C° 0 mm 4 m/s 751 mmHg 54%
17:00 +19°C° 0 mm 4 m/s 751 mmHg 56%
18:00 +17°C° 0 mm 4 m/s 751 mmHg 63%
19:00 +14°C° 0 mm 3 m/s 751 mmHg 69%
20:00 +12°C° 0 mm 3 m/s 751 mmHg 76%
21:00 +11°C° 0 mm 3 m/s 751 mmHg 78%
22:00 +10°C° 0 mm 3 m/s 751 mmHg 79%
23:00 +9°C° 0 mm 3 m/s 751 mmHg 80%

Poimâine, 11 Mai, Marţi

Timp Temperatura Precipitaţii Vânt Presiune Umiditate
00:00 +9°C° 0 mm 3 m/s 752 mmHg 81%
01:00 +8°C° 0 mm 3 m/s 752 mmHg 83%
02:00 +8°C° 0 mm 3 m/s 752 mmHg 84%
03:00 +7°C° 0 mm 3 m/s 752 mmHg 84%
04:00 +7°C° 0 mm 3 m/s 751 mmHg 84%
05:00 +5°C° 0 mm 3 m/s 751 mmHg 84%
06:00 +7°C° 0 mm 4 m/s 752 mmHg 77%
07:00 +9°C° 0 mm 5 m/s 752 mmHg 70%
08:00 +12°C° 0 mm 5 m/s 752 mmHg 62%
09:00 +13°C° 0 mm 5 m/s 752 mmHg 56%
10:00 +15°C° 0 mm 5 m/s 751 mmHg 51%
11:00 +16°C° 0 mm 5 m/s 751 mmHg 45%
12:00 +17°C° 0 mm 5 m/s 751 mmHg 43%
13:00 +19°C° 0 mm 5 m/s 750 mmHg 41%
14:00 +19°C° 0 mm 5 m/s 750 mmHg 39%
15:00 +19°C° 0 mm 5 m/s 750 mmHg 44%
16:00 +19°C° 0 mm 4 m/s 750 mmHg 50%
17:00 +19°C° 0 mm 4 m/s 749 mmHg 55%
18:00 +17°C° 0 mm 4 m/s 749 mmHg 62%
19:00 +15°C° 0 mm 4 m/s 749 mmHg 70%
20:00 +13°C° 0 mm 4 m/s 749 mmHg 78%
21:00 +13°C° 0 mm 4 m/s 749 mmHg 79%
22:00 +12°C° 0 mm 4 m/s 749 mmHg 81%
23:00 +12°C° 0 mm 4 m/s 749 mmHg 83%

12 Mai, Miercuri

Timp Temperatura Precipitaţii Vânt Presiune Umiditate
00:00 +11°C° 0 mm 4 m/s 748 mmHg 86%
01:00 +11°C° 0 mm 4 m/s 748 mmHg 90%
02:00 +10°C° 0 mm 4 m/s 748 mmHg 94%
03:00 +10°C° 0 mm 4 m/s 748 mmHg 95%
04:00 +10°C° 0 mm 4 m/s 748 mmHg 95%
05:00 +10°C° 0 mm 4 m/s 748 mmHg 96%
06:00 +10°C° 0 mm 5 m/s 747 mmHg 88%
07:00 +12°C° 0 mm 5 m/s 747 mmHg 80%
08:00 +13°C° 0 mm 6 m/s 747 mmHg 73%
09:00 +13°C° 0 mm 6 m/s 747 mmHg 67%
10:00 +14°C° 0 mm 6 m/s 747 mmHg 62%
11:00 +15°C° 0 mm 7 m/s 747 mmHg 57%
12:00 +15°C° 0 mm 7 m/s 746 mmHg 55%
13:00 +15°C° 0 mm 6 m/s 746 mmHg 53%
14:00 +16°C° 0 mm 6 m/s 746 mmHg 51%
15:00 +15°C° 0 mm 6 m/s 745 mmHg 54%
16:00 +15°C° 0 mm 6 m/s 745 mmHg 57%
17:00 +15°C° 0 mm 5 m/s 745 mmHg 59%
18:00 +13°C° 0 mm 4 m/s 744 mmHg 65%
19:00 +12°C° 0 mm 4 m/s 744 mmHg 71%
20:00 +10°C° 0 mm 3 m/s 744 mmHg 76%
21:00 +9°C° 0 mm 3 m/s 744 mmHg 82%
22:00 +8°C° 0 mm 2 m/s 743 mmHg 87%
23:00 +7°C° 0 mm 2 m/s 743 mmHg 93%

13 Mai, Joi

Timp Temperatura Precipitaţii Vânt Presiune Umiditate
00:00 +7°C° 0 mm 2 m/s 743 mmHg 92%
01:00 +8°C° 0 mm 2 m/s 742 mmHg 92%
02:00 +8°C° 0 mm 2 m/s 742 mmHg 92%
03:00 +7°C° 0 mm 2 m/s 742 mmHg 94%
04:00 +6°C° 0 mm 2 m/s 741 mmHg 96%
05:00 +6°C° 0 mm 2 m/s 741 mmHg 98%
06:00 +7°C° 0 mm 2 m/s 741 mmHg 90%
07:00 +8°C° 0 mm 2 m/s 741 mmHg 83%
08:00 +10°C° 0 mm 3 m/s 741 mmHg 76%
09:00 +11°C° 0 mm 3 m/s 741 mmHg 69%
10:00 +12°C° 0 mm 4 m/s 741 mmHg 62%
11:00 +14°C° 0 mm 4 m/s 741 mmHg 55%
12:00 +14°C° 0 mm 5 m/s 740 mmHg 56%
13:00 +14°C° 0 mm 5 m/s 740 mmHg 56%
14:00 +14°C° 0 mm 5 m/s 740 mmHg 56%
15:00 +13°C° 0 mm 5 m/s 740 mmHg 63%
16:00 +12°C° 0 mm 5 m/s 741 mmHg 70%
17:00 +10°C° 0 mm 5 m/s 741 mmHg 77%
18:00 +10°C° 0.1 mm 5 m/s 741 mmHg 82%
19:00 +10°C° 0.1 mm 4 m/s 741 mmHg 87%
20:00 +8°C° 0.1 mm 4 m/s 740 mmHg 92%
21:00 +8°C° 0 mm 4 m/s 740 mmHg 93%
22:00 +9°C° 0 mm 3 m/s 740 mmHg 94%
23:00 +9°C° 0 mm 3 m/s 740 mmHg 95%

14 Mai, Vineri

Timp Temperatura Precipitaţii Vânt Presiune Umiditate
00:00 +9°C° 0.1 mm 3 m/s 740 mmHg 95%
01:00 +9°C° 0.1 mm 3 m/s 739 mmHg 95%
02:00 +9°C° 0.1 mm 3 m/s 739 mmHg 96%
03:00 +9°C° 0.3 mm 3 m/s 739 mmHg 96%
04:00 +9°C° 0.3 mm 3 m/s 739 mmHg 97%
05:00 +9°C° 0.3 mm 3 m/s 739 mmHg 98%
06:00 +10°C° 0 mm 3 m/s 739 mmHg 96%
07:00 +11°C° 0 mm 3 m/s 739 mmHg 94%
08:00 +11°C° 0 mm 3 m/s 739 mmHg 92%
09:00 +12°C° 0 mm 4 m/s 739 mmHg 88%
10:00 +13°C° 0 mm 4 m/s 739 mmHg 84%
11:00 +14°C° 0 mm 4 m/s 739 mmHg 81%
12:00 +14°C° 0.1 mm 4 m/s 740 mmHg 79%
13:00 +15°C° 0.1 mm 4 m/s 740 mmHg 77%
14:00 +15°C° 0.1 mm 4 m/s 740 mmHg 75%
15:00 +14°C° 0.2 mm 4 m/s 740 mmHg 79%
16:00 +14°C° 0.2 mm 3 m/s 740 mmHg 83%
17:00 +13°C° 0.2 mm 3 m/s 741 mmHg 87%
18:00 +12°C° 0 mm 3 m/s 741 mmHg 90%
19:00 +13°C° 0 mm 2 m/s 741 mmHg 93%
20:00 +12°C° 0 mm 2 m/s 741 mmHg 95%
21:00 +10°C° 0 mm 2 m/s 741 mmHg 96%
22:00 +10°C° 0 mm 2 m/s 742 mmHg 96%
23:00 +9°C° 0 mm 2 m/s 742 mmHg 96%
Arată mai mult

Formular de consimțământ

Meteoprog și furnizorii noștri de servicii pot stoca și accesa date personale, precum cookies, identificatori de dispozitiv sau alte tehnologii similare pe dispozitivul dumneavoastră și procesa astfel de date pentru a personaliza conținutul și reclamele, dar și pentru a oferi caracteristici de social media și pentru a analiza traficul.

  • Stocarea și/sau accesarea informațiilor pe dispozitivul dumneavoastră

    Cookies, identificatori de dispozitiv sau alte informații pot fi stocate sau accesate pe dispozitiv în scopurile indicate mai sus.

  • Reclame și conținut personalizat, evaluarea reclamelor și a conținutului, informații despre audiențe și dezvoltarea produselor

    Reclamele și conținutul pot fi personalizate pe baza unui profil. Pot fi adăugate date suplimentare pentru a personaliza mai bine reclamele și conținutul. Performanța reclamelor și conținutului poate fi măsurată. Pot fi obținute informații despre utilizatorii care au văzut reclamele și conținutul. Aceste date pot fi utilizate pentru a dezvolta sau îmbunătăți experiența utilizatorilor, sistemele și software-ul.

Dând clic pe ‘Sunt de acord’, permiteți utilizarea cookie-urilor menționate, a identificatorilor de dispozitiv, balizelor web sau altor tehnologii similare. Setările pot fi modificate din browser-ul dispozitivului dumneavoastră.

În anumite scopuri, interesele legitime pot prima asupra consimțământului. Puteți citi mai multe informații în acest sens în Politica privind Confidențialitatea Datelor și Cookie.